QPF
0.00 0.00 0.00 0.00 0.00 0.00 0.00 0.00 0.00 0.00 0.00 0.00 0.00 0.00 0.00 0.00 0.00 0.00 0.00 0.00 0.00 0.00 0.00 0.00 0.00 0.00 0.00 0.00 0.00 0.00 0.00 0.00 0.01
0.00 0.00 0.00 0.00 0.00 0.00 0.00 0.00 0.00 0.00 0.00 0.00 0.00 0.00 0.00 0.00 0.00 0.00 0.00 0.00 0.00 0.00 0.00 0.00 0.00 0.00 0.00 0.00 0.00 0.00 0.00 0.00 0.00
0.00 0.00 0.00 0.00 0.00 0.00 0.00 0.00 0.00 0.00 0.00 0.00 0.00 0.00 0.00 0.00 0.00 0.00 0.00 0.00 0.00 0.00 0.00 0.00 0.00 0.00 0.00 0.00 0.00 0.00 0.00 0.00 0.00
0.00 0.00 0.00 0.00 0.00 0.00 0.00 0.00 0.00 0.00 0.00 0.00 0.00 0.00 0.00 0.00 0.00 0.00 0.00 0.00 0.00 0.00 0.00 0.00 0.00 0.00 0.00 0.00 0.00 0.00 0.00 0.00 0.00
0.00 0.00 0.00 0.00 0.00 0.00 0.00 0.00 0.00 0.00 0.00 0.00 0.00 0.00 0.00 0.00 0.00 0.00 0.00 0.00 0.00 0.02 0.02 0.01 0.01 0.00 0.00 0.00 0.00 0.00 0.00 0.00 0.01
0.00 0.00 0.00 0.00 0.00 0.00 0.00 0.00 0.00 0.00 0.00 0.00 0.00 0.00 0.00 0.00 0.00 0.00 0.00 0.00 0.00 0.01 0.01 0.01 0.01 0.01 0.00 0.00 0.01 0.00 0.00 0.00 0.00
0.00 0.00 0.00 0.00 0.00 0.00 0.00 0.00 0.00 0.00 0.00 0.00 0.00 0.00 0.00 0.00 0.00 0.00 0.01 0.00 0.00 0.00 0.00 0.00 0.01 0.00 0.00 0.01 0.01 0.01 0.00 0.00 0.00
0.00 0.00 0.00 0.00 0.00 0.00 0.00 0.00 0.00 0.00 0.00 0.00 0.00 0.00 0.00 0.00 0.00 0.00 0.00 0.00 0.00 0.00 0.02 0.01 0.01 0.00 0.02 0.01 0.01 0.00 0.01 0.01 0.01
0.00 0.00 0.00 0.00 0.00 0.00 0.00 0.00 0.00 0.00 0.00 0.00 0.00 0.00 0.00 0.00 0.00 0.00 0.00 0.00 0.00 0.00 0.01 0.02 0.01 0.00 0.00 0.00 0.01 0.02 0.02 0.03 0.02
0.00 0.00 0.00 0.00 0.00 0.00 0.00 0.00 0.00 0.00 0.00 0.00 0.00 0.00 0.00 0.00 0.00 0.00 0.00 0.00 0.00 0.00 0.01 0.03 0.03 0.03 0.03 0.03 0.02 0.01 0.01 0.00 0.00
0.00 0.00 0.00 0.00 0.00 0.00 0.00 0.00 0.00 0.00 0.00 0.00 0.00 0.00 0.00 0.00 0.00 0.00 0.00 0.00 0.00 0.00 0.00 0.01 0.03 0.02 0.01 0.00 0.00 0.00 0.00 0.00 0.00
0.00 0.00 0.00 0.00 0.00 0.00 0.00 0.00 0.00 0.00 0.00 0.00 0.00 0.00 0.00 0.00 0.00 0.00 0.00 0.00 0.00 0.00 0.00 0.00 0.01 0.01 0.01 0.00 0.00 0.00 0.00 0.00 0.00
0.00 0.00 0.00 0.00 0.00 0.00 0.00 0.00 0.00 0.00 0.00 0.00 0.00 0.00 0.00 0.00 0.00 0.00 0.00 0.00 0.00 0.00 0.00 0.00 0.00 0.00 0.00 0.00 0.00 0.00 0.00 0.00 0.00
0.00 0.00 0.00 0.00 0.00 0.00 0.00 0.00 0.00 0.00 0.00 0.00 0.00 0.00 0.00 0.00 0.00 0.00 0.00 0.00 0.00 0.00 0.00 0.00 0.00 0.00 0.00 0.00 0.00 0.00 0.00 0.00 0.00
0.00 0.00 0.00 0.00 0.00 0.00 0.00 0.00 0.00 0.00 0.00 0.00 0.00 0.00 0.00 0.00 0.00 0.00 0.00 0.00 0.00 0.00 0.00 0.00 0.00 0.00 0.00 0.00 0.00 0.00 0.00 0.00 0.00
0.00 0.00 0.00 0.00 0.00 0.00 0.00 0.00 0.00 0.00 0.00 0.00 0.00 0.00 0.00 0.00 0.00 0.00 0.00 0.00 0.00 0.00 0.00 0.00 0.00 0.00 0.00 0.00 0.00 0.00 0.00 0.00 0.00
0.00 0.00 0.00 0.00 0.00 0.00 0.00 0.00 0.00 0.00 0.00 0.00 0.00 0.00 0.00 0.00 0.00 0.00 0.00 0.00 0.00 0.00 0.00 0.00 0.00 0.00 0.00 0.00 0.00 0.00 0.00 0.00 0.00
0.00 0.00 0.00 0.00 0.00 0.00 0.00 0.00 0.00 0.00 0.00 0.00 0.00 0.00 0.00 0.00 0.00 0.00 0.00 0.00 0.00 0.00 0.00 0.00 0.00 0.00 0.00 0.00 0.00 0.00 0.00 0.00 0.00
0.00 0.00 0.00 0.00 0.00 0.00 0.00 0.00 0.00 0.00 0.00 0.00 0.00 0.00 0.00 0.00 0.00 0.00 0.00 0.00 0.00 0.00 0.00 0.00 0.00 0.00 0.00 0.00 0.00 0.00 0.00 0.00 0.00
0.00 0.00 0.00 0.00 0.00 0.00 0.00 0.00 0.00 0.00 0.00 0.00 0.00 0.00 0.00 0.00 0.00 0.00 0.00 0.00 0.00 0.00 0.00 0.00 0.00 0.00 0.00 0.00 0.00 0.00 0.00 0.00 0.00
MSLP
1018.55 1018.81 1018.90 1019.10 1019.14 1019.27 1019.33 1019.41 1019.43 1019.40 1019.38 1019.31 1019.65 1019.93 1020.01 1020.23 1020.45 1020.49 1020.30 1020.25 1019.97 1020.01 1020.01 1019.96 1019.95 1020.02 1019.97 1019.95 1019.80 1019.62 1019.60 1019.45 1019.29
1018.79 1019.07 1019.22 1019.37 1019.47 1019.55 1019.61 1019.68 1019.81 1019.79 1019.70 1019.73 1020.03 1020.26 1020.43 1020.60 1020.85 1020.80 1020.69 1020.43 1020.24 1020.27 1020.31 1020.34 1020.37 1020.34 1020.33 1020.27 1020.12 1019.92 1019.76 1019.77 1019.71
1018.91 1019.18 1019.44 1019.60 1019.73 1019.81 1019.89 1019.91 1020.03 1020.09 1020.10 1020.20 1020.42 1020.55 1020.83 1020.90 1021.05 1021.00 1020.79 1020.51 1020.53 1020.55 1020.64 1020.66 1020.68 1020.61 1020.59 1020.53 1020.47 1020.42 1020.30 1020.09 1019.97
1019.05 1019.33 1019.55 1019.85 1020.04 1020.09 1020.09 1020.13 1020.20 1020.37 1020.60 1020.68 1020.87 1020.97 1021.11 1021.23 1021.23 1020.99 1020.93 1020.80 1020.83 1020.91 1020.86 1020.93 1021.01 1020.98 1020.94 1020.91 1020.95 1020.81 1020.65 1020.62 1020.40
1019.42 1019.51 1019.63 1019.95 1020.25 1020.33 1020.40 1020.38 1020.44 1020.69 1020.93 1021.03 1021.20 1021.33 1021.39 1021.59 1021.33 1021.13 1021.04 1021.21 1021.15 1021.09 1021.24 1021.13 1021.23 1021.28 1021.34 1021.38 1021.36 1021.30 1021.21 1020.97 1020.90
1019.90 1019.98 1019.96 1019.93 1020.32 1020.44 1020.62 1020.73 1020.78 1021.08 1021.23 1021.40 1021.56 1021.65 1021.87 1021.73 1021.64 1021.40 1021.24 1021.40 1021.46 1021.37 1021.43 1021.48 1021.49 1021.53 1021.58 1021.64 1021.61 1021.76 1021.72 1021.59 1021.53
1019.96 1020.16 1020.19 1020.09 1020.35 1020.59 1020.70 1020.85 1021.01 1021.34 1021.66 1021.92 1021.95 1022.21 1022.18 1022.08 1022.04 1021.79 1021.59 1021.49 1021.71 1021.74 1021.75 1021.79 1021.73 1021.75 1021.80 1021.83 1021.88 1021.95 1022.02 1022.09 1022.15
1020.24 1020.42 1020.72 1020.55 1020.61 1021.02 1021.10 1021.23 1021.40 1021.66 1021.85 1022.21 1022.47 1022.63 1022.64 1022.75 1022.59 1022.13 1022.06 1021.95 1021.88 1021.95 1021.90 1021.89 1021.92 1022.04 1022.04 1022.17 1022.31 1022.41 1022.44 1022.50 1022.52
1020.51 1020.73 1020.99 1020.84 1020.86 1021.18 1021.53 1021.70 1021.88 1022.01 1022.21 1022.39 1022.71 1022.95 1023.12 1023.21 1023.12 1022.77 1022.53 1022.44 1022.31 1022.25 1022.17 1022.17 1022.25 1022.34 1022.46 1022.56 1022.76 1022.90 1022.89 1022.87 1022.92
1020.37 1020.74 1021.00 1021.10 1021.07 1021.02 1021.58 1021.94 1022.23 1022.48 1022.68 1022.91 1023.02 1023.33 1023.49 1023.49 1023.55 1023.53 1023.30 1023.04 1022.81 1022.67 1022.63 1022.58 1022.55 1022.68 1022.88 1023.02 1023.16 1023.29 1023.37 1023.40 1023.43
1020.24 1020.70 1020.98 1021.20 1021.11 1021.05 1021.28 1021.83 1022.30 1022.82 1022.99 1023.41 1023.63 1023.80 1023.87 1024.00 1024.01 1023.94 1023.94 1023.78 1023.53 1023.42 1023.32 1023.14 1023.06 1023.18 1023.37 1023.58 1023.79 1023.91 1023.96 1023.93 1023.85
1020.09 1020.60 1020.89 1021.06 1021.26 1021.31 1021.30 1021.93 1022.30 1022.88 1023.38 1023.88 1024.04 1024.36 1024.43 1024.49 1024.59 1024.51 1024.43 1024.43 1024.23 1024.01 1023.98 1023.83 1023.71 1023.71 1023.85 1024.20 1024.32 1024.40 1024.42 1024.38 1024.29
1019.86 1020.31 1020.77 1021.09 1021.19 1021.70 1021.62 1022.01 1022.61 1023.03 1023.47 1024.17 1024.39 1024.71 1024.81 1025.00 1025.01 1025.00 1024.96 1025.05 1025.08 1024.92 1024.66 1024.57 1024.36 1024.24 1024.26 1024.49 1024.62 1024.81 1024.83 1024.77 1024.68
1019.61 1019.99 1020.57 1020.82 1021.31 1021.77 1021.85 1022.42 1022.62 1023.30 1023.76 1024.24 1024.70 1024.93 1025.12 1025.11 1025.29 1025.40 1025.43 1025.50 1025.56 1025.61 1025.42 1025.25 1025.18 1024.94 1024.81 1024.91 1025.08 1025.21 1025.36 1025.28 1025.15
1019.41 1020.01 1020.50 1020.67 1021.41 1021.84 1022.09 1022.37 1022.93 1023.34 1023.80 1024.32 1025.04 1025.21 1025.39 1025.47 1025.59 1025.69 1025.70 1025.87 1026.02 1026.08 1026.18 1025.99 1025.94 1025.85 1025.72 1025.64 1025.58 1025.59 1025.65 1025.65 1025.55
1019.21 1019.73 1020.31 1020.57 1021.17 1021.79 1022.01 1022.44 1022.97 1023.63 1023.83 1024.44 1025.41 1025.73 1025.73 1025.85 1025.83 1025.85 1026.05 1026.18 1026.37 1026.40 1026.53 1026.67 1026.70 1026.77 1026.70 1026.57 1026.39 1026.20 1026.00 1025.93 1025.88
1019.09 1019.32 1019.99 1020.16 1020.82 1021.57 1021.97 1022.22 1023.09 1023.63 1023.69 1024.42 1025.27 1026.13 1026.29 1026.34 1026.23 1026.21 1026.11 1026.52 1026.52 1026.83 1026.90 1027.07 1027.26 1027.43 1027.45 1027.29 1027.11 1026.82 1026.55 1026.24 1026.16
1018.08 1018.97 1019.44 1019.89 1020.46 1021.20 1021.48 1021.80 1022.34 1023.30 1023.78 1023.77 1024.21 1025.81 1026.10 1026.44 1026.69 1026.66 1026.70 1026.66 1026.92 1026.97 1027.23 1027.37 1027.49 1027.52 1027.76 1027.69 1027.56 1027.26 1027.12 1026.80 1026.64
1017.94 1018.53 1018.95 1019.44 1020.03 1020.74 1021.04 1021.37 1021.88 1022.42 1023.32 1023.83 1023.88 1024.04 1024.63 1026.00 1027.12 1027.09 1027.04 1027.07 1027.06 1027.17 1027.39 1027.62 1027.85 1027.68 1027.85 1027.74 1027.80 1027.70 1027.49 1027.23 1026.92
1018.15 1018.42 1018.71 1019.04 1019.52 1020.20 1020.51 1021.02 1021.63 1022.03 1022.68 1023.08 1023.82 1024.30 1024.61 1024.98 1025.87 1026.99 1027.37 1027.38 1027.44 1027.46 1027.45 1027.91 1027.89 1027.98 1027.99 1028.03 1027.87 1027.92 1027.79 1027.55 1027.27
Thickness
5717 5715 5716 5714 5714 5713 5712 5711 5710 5709 5709 5707 5705 5701 5698 5695 5690 5687 5685 5683 5682 5681 5680 5679 5678 5675 5674 5671 5670 5669 5667 5666 5664
5714 5712 5712 5711 5710 5709 5709 5708 5706 5706 5705 5703 5700 5697 5695 5693 5688 5686 5683 5682 5680 5679 5677 5675 5674 5672 5670 5669 5668 5667 5665 5662 5660
5713 5711 5709 5707 5706 5706 5705 5705 5703 5702 5700 5699 5696 5694 5691 5689 5686 5683 5682 5681 5679 5677 5674 5672 5670 5669 5668 5666 5665 5662 5661 5660 5658
5711 5709 5707 5703 5702 5701 5701 5701 5700 5698 5695 5694 5691 5690 5688 5686 5684 5682 5680 5678 5676 5674 5672 5669 5667 5665 5664 5662 5660 5659 5658 5656 5655
5705 5706 5705 5702 5698 5697 5696 5696 5696 5693 5690 5690 5688 5686 5685 5682 5682 5681 5678 5674 5673 5671 5669 5668 5665 5662 5660 5658 5656 5654 5653 5653 5651
5701 5700 5701 5702 5697 5695 5692 5691 5692 5690 5687 5685 5684 5682 5681 5680 5679 5677 5675 5672 5669 5668 5666 5663 5662 5659 5657 5654 5652 5649 5647 5647 5646
5698 5697 5697 5699 5696 5693 5691 5689 5688 5687 5684 5681 5680 5678 5677 5676 5675 5673 5671 5670 5666 5664 5663 5661 5659 5657 5654 5651 5649 5646 5644 5642 5641
5695 5694 5692 5696 5694 5691 5690 5688 5686 5684 5683 5679 5676 5674 5673 5670 5669 5669 5667 5665 5663 5661 5660 5658 5656 5653 5651 5648 5644 5641 5640 5638 5636
5691 5691 5689 5692 5692 5689 5687 5685 5682 5680 5678 5676 5673 5670 5667 5665 5664 5664 5662 5660 5658 5657 5656 5654 5652 5649 5646 5644 5640 5637 5635 5633 5631
5690 5688 5686 5687 5688 5689 5685 5681 5678 5675 5673 5670 5668 5665 5663 5661 5659 5657 5655 5655 5654 5652 5650 5649 5647 5645 5642 5638 5635 5632 5630 5628 5626
5687 5685 5684 5683 5684 5686 5684 5679 5675 5670 5668 5664 5661 5660 5658 5656 5654 5653 5649 5647 5646 5645 5643 5642 5640 5637 5634 5631 5628 5625 5622 5621 5620
5684 5681 5681 5680 5678 5680 5681 5675 5672 5667 5662 5658 5656 5653 5652 5650 5647 5645 5644 5641 5639 5637 5635 5634 5632 5630 5627 5622 5620 5618 5616 5614 5613
5680 5679 5677 5675 5675 5671 5674 5671 5666 5662 5659 5653 5650 5647 5645 5642 5641 5638 5637 5634 5631 5628 5627 5624 5624 5622 5620 5616 5614 5610 5609 5608 5607
5675 5676 5672 5671 5669 5666 5666 5663 5661 5655 5651 5648 5644 5641 5639 5637 5634 5632 5629 5626 5624 5620 5618 5618 5615 5613 5612 5609 5606 5603 5600 5599 5598
5671 5669 5666 5667 5663 5660 5659 5657 5653 5650 5646 5643 5635 5634 5631 5629 5627 5624 5622 5619 5616 5613 5610 5609 5606 5603 5602 5600 5598 5596 5593 5591 5590
5666 5664 5661 5661 5658 5653 5653 5650 5647 5641 5640 5635 5626 5623 5623 5621 5620 5618 5615 5612 5608 5606 5603 5600 5598 5595 5590 5589 5588 5587 5586 5584 5581
5659 5659 5656 5657 5653 5647 5646 5645 5638 5634 5634 5629 5621 5613 5612 5610 5611 5610 5608 5604 5602 5597 5595 5592 5589 5586 5582 5579 5578 5577 5576 5576 5573
5657 5651 5651 5650 5647 5641 5641 5640 5636 5628 5625 5625 5622 5606 5605 5601 5600 5599 5597 5597 5593 5590 5586 5583 5581 5579 5574 5572 5569 5568 5565 5565 5563
5650 5647 5646 5644 5642 5637 5634 5634 5631 5628 5620 5617 5617 5615 5610 5598 5591 5588 5587 5586 5585 5582 5577 5575 5570 5570 5566 5563 5558 5556 5555 5554 5553
5637 5638 5638 5638 5636 5632 5631 5628 5624 5621 5617 5615 5608 5605 5601 5598 5590 5580 5576 5575 5573 5571 5570 5564 5562 5559 5556 5553 5550 5546 5544 5543 5542